SCP
0 0 0 0 0 0 0 1 1 0 0 1 0 0 0 0 0 -0 0 -0 -0 -0 0 0 0 0 0 0 0 0 0 -0
0 0 0 0 0 0 0 1 1 1 0 1 1 0 1 0 0 0 1 0 0 0 0 0 0 0 0 0 0 0 0 0
0 0 0 0 0 1 0 1 1 2 1 2 1 1 1 1 0 1 1 0 1 0 0 0 0 0 0 0 0 0 0 0
0 0 0 0 0 0 1 1 3 2 2 3 4 3 2 2 2 1 3 2 2 0 1 0 0 0 0 0 0 0 0 0
0 0 0 0 0 0 2 2 2 4 3 2 3 2 2 2 2 1 3 4 5 2 1 1 0 0 1 1 0 0 0 0
0 0 0 0 0 0 1 1 2 5 4 3 4 3 4 3 2 2 3 2 2 2 1 2 1 1 1 0 0 0 0 0
0 0 0 0 0 1 1 3 2 5 5 3 3 4 4 3 4 4 4 4 2 3 2 2 4 1 1 1 0 0 0 0
0 0 0 0 0 0 2 4 4 5 5 5 3 3 5 5 6 6 6 4 3 3 2 2 3 2 1 1 2 1 1 0
0 0 0 0 0 0 1 2 6 5 5 5 4 4 4 4 4 4 4 4 2 3 3 2 3 2 2 3 3 3 1 1
0 0 0 0 0 0 1 1 4 7 5 5 4 3 3 3 3 4 5 6 5 2 4 3 2 4 6 6 4 2 2 1
0 0 0 0 0 0 0 1 2 4 4 5 6 5 7 6 6 6 5 4 3 5 6 3 3 3 3 4 4 4 2 2
0 0 0 0 0 0 0 0 0 1 6 5 5 6 9 9 8 7 7 5 5 4 4 4 10 6 5 5 6 7 5 3
0 0 0 0 0 0 0 1 2 2 2 6 8 7 6 8 8 7 8 8 6 4 5 6 6 7 5 7 5 8 5 4
0 0 0 0 0 0 0 1 1 1 2 3 5 7 6 6 7 7 8 8 6 7 5 6 8 6 7 6 8 7 4 2
0 0 0 0 0 0 0 0 1 1 1 2 3 4 7 6 8 8 6 8 10 9 7 7 9 9 7 5 6 6 5 5
0 0 0 0 0 0 0 0 0 1 1 2 2 4 5 8 7 9 8 7 8 9 8 9 13 9 6 7 10 9 7 6
0 0 0 0 0 0 0 0 0 0 1 2 3 4 5 5 7 8 12 7 10 11 7 10 8 8 9 10 9 5 6 4
0 0 0 0 0 0 0 0 0 0 1 2 2 3 5 6 10 10 10 11 9 14 11 7 7 7 7 7 7 5 4 3
0 0 0 0 0 0 0 0 0 0 0 1 2 4 4 5 6 10 10 10 9 13 3 6 6 6 6 6 5 3 3 4
0 0 0 0 0 0 0 0 0 0 0 1 1 4 4 5 4 4 4 7 6 11 8 6 3 3 4 4 3 3 3 3
Wind_Speed_500mb
21 23 30 30 31 34 37 42 43 46 44 43 44 42 44 50 48 51 56 41 34 40 35 42 40 37 32 29 26 22 16 8
35 32 30 36 39 38 38 40 45 49 43 45 39 46 46 44 47 51 48 45 42 39 34 32 42 34 31 26 22 17 16 25
45 39 35 32 40 40 42 42 46 53 59 49 45 48 47 48 44 51 46 47 47 41 39 31 34 29 32 29 24 26 26 20
49 45 41 37 39 45 47 50 54 56 69 56 61 56 52 59 56 61 66 52 52 46 48 43 37 35 31 32 30 27 23 19
47 47 46 42 41 46 49 56 55 63 59 70 57 51 52 57 55 59 65 74 71 60 53 51 44 41 45 38 35 31 25 21
37 37 39 34 33 40 52 48 53 62 62 58 60 55 62 55 54 63 70 76 78 76 63 53 48 45 48 37 35 28 26 22
36 34 33 30 27 35 40 52 50 58 61 59 56 59 61 65 60 72 72 77 79 82 62 63 61 46 44 35 35 36 29 28
38 36 33 31 29 28 39 43 53 59 59 59 52 60 67 69 75 70 69 74 78 82 67 60 60 58 46 45 41 34 33 32
36 37 36 35 31 32 34 47 49 52 56 57 55 58 60 66 63 66 64 70 69 74 62 55 68 58 56 46 49 50 37 35
38 41 39 42 35 32 34 40 53 60 54 59 56 56 60 57 60 66 71 76 77 69 74 68 87 77 69 64 64 51 42 35
42 43 43 43 42 35 31 37 46 58 58 57 59 59 60 62 67 69 76 76 72 72 89 95 73 65 65 72 64 65 52 37
39 38 36 43 50 51 41 34 38 49 60 64 66 63 67 73 69 66 65 68 72 70 75 77 89 64 65 65 68 65 52 50
33 41 45 37 33 39 35 40 41 43 54 72 73 76 73 68 64 66 72 71 72 69 72 72 67 71 69 64 59 63 55 48
41 45 40 39 37 40 44 46 50 50 47 61 77 79 82 67 65 68 71 76 63 67 80 77 74 74 72 75 72 70 54 55
31 31 35 36 36 37 40 46 55 55 52 53 67 83 81 82 73 73 61 60 62 72 73 86 75 73 71 71 62 59 64 66
35 39 40 42 39 41 42 44 44 48 59 61 61 74 82 83 79 71 73 64 63 68 78 84 72 71 63 56 57 54 54 55
41 40 36 42 42 45 47 44 46 47 50 58 62 68 79 79 80 82 74 68 68 69 69 68 68 59 56 59 57 58 52 49
36 44 49 43 43 46 42 44 47 47 49 54 59 66 74 80 80 83 78 71 72 89 77 60 63 60 59 57 54 56 53 51
38 41 52 50 49 50 45 45 47 49 48 48 57 62 69 74 80 77 87 79 78 65 65 55 53 52 53 55 53 47 48 48
54 45 44 52 47 54 47 46 44 45 47 40 45 57 63 67 70 84 81 82 79 72 43 56 55 52 50 50 50 44 44 45
Wind_Direction_500mb
263 258 236 216 214 209 207 204 201 198 194 205 204 202 206 211 210 216 213 208 206 195 217 214 212 210 213 215 221 226 237 238
260 255 250 235 217 216 211 210 202 202 201 206 206 200 204 205 207 209 209 200 205 201 203 207 212 214 209 229 226 233 233 241
251 248 249 249 233 216 219 214 211 208 194 209 206 202 210 203 207 214 200 202 207 201 201 203 211 203 217 204 211 238 240 248
246 243 244 240 236 229 220 218 221 214 204 202 209 202 208 206 203 211 208 205 213 206 196 198 205 200 211 212 214 223 240 235
248 242 245 242 241 236 224 219 218 228 222 206 212 209 203 208 200 219 218 216 215 211 206 207 204 203 204 213 213 226 223 231
254 244 249 252 247 242 227 225 221 226 227 219 212 210 211 215 216 214 223 220 217 220 215 209 207 206 218 211 222 219 240 233
252 252 254 256 257 235 225 220 217 227 229 223 215 217 219 207 215 211 228 226 219 223 213 215 212 204 214 207 218 223 227 231
251 253 248 249 253 241 221 224 223 214 225 230 222 218 215 214 209 214 218 229 224 222 218 213 224 222 213 218 218 224 222 233
245 242 252 256 256 246 234 223 226 221 219 218 217 220 224 220 214 219 218 232 230 219 214 227 226 216 216 215 222 219 225 230
248 247 251 258 264 264 249 247 225 228 220 224 222 219 223 222 218 217 216 219 220 212 222 233 238 222 224 209 224 229 232 226
265 263 263 264 263 270 273 266 245 230 228 226 227 220 223 221 218 215 223 224 226 219 223 217 226 230 228 232 235 237 234 233
285 277 259 260 265 270 269 267 264 246 232 222 222 219 215 214 214 214 216 226 224 219 221 225 218 225 222 231 227 229 226 212
304 298 286 303 267 265 274 279 276 266 241 231 222 223 226 220 217 217 211 220 225 221 223 223 228 222 230 216 230 224 231 240
310 299 302 299 293 287 285 284 279 275 261 242 232 226 225 219 221 223 220 223 229 250 225 229 226 226 220 230 223 238 242 239
306 300 301 305 300 296 295 291 285 276 271 260 242 237 232 223 218 216 215 219 217 227 225 227 226 230 232 235 233 235 237 220
315 310 317 308 300 296 290 294 293 284 269 261 252 239 237 231 226 221 218 217 217 221 221 215 219 225 224 223 229 228 227 231
309 299 296 297 307 302 294 298 304 298 280 259 254 247 236 231 229 227 222 223 215 211 221 211 210 208 213 218 221 225 227 231
294 296 302 288 292 293 300 304 305 303 292 264 249 247 238 235 227 227 219 218 213 208 215 211 205 206 212 217 218 226 228 229
294 296 289 299 294 292 298 304 299 305 301 279 249 243 240 236 230 224 217 211 215 204 207 185 198 203 211 217 216 219 223 223
314 303 294 290 290 297 300 297 301 298 303 292 259 249 240 238 232 225 221 213 212 220 170 188 198 202 207 216 215 215 220 219
Wind_Speed_850mb
21 23 30 30 31 34 37 42 43 46 44 43 44 42 44 50 48 51 56 41 34 40 35 42 40 37 32 29 26 22 16 8
35 32 30 36 39 38 38 40 45 49 43 45 39 46 46 44 47 51 48 45 42 39 34 32 42 34 31 26 22 17 16 25
45 39 35 32 40 40 42 42 46 53 59 49 45 48 47 48 44 51 46 47 47 41 39 31 34 29 32 29 24 26 26 20
49 45 41 37 39 45 47 50 54 56 69 56 61 56 52 59 56 61 66 52 52 46 48 43 37 35 31 32 30 27 23 19
47 47 46 42 41 46 49 56 55 63 59 70 57 51 52 57 55 59 65 74 71 60 53 51 44 41 45 38 35 31 25 21
37 37 39 34 33 40 52 48 53 62 62 58 60 55 62 55 54 63 70 76 78 76 63 53 48 45 48 37 35 28 26 22
36 34 33 30 27 35 40 52 50 58 61 59 56 59 61 65 60 72 72 77 79 82 62 63 61 46 44 35 35 36 29 28
38 36 33 31 29 28 39 43 53 59 59 59 52 60 67 69 75 70 69 74 78 82 67 60 60 58 46 45 41 34 33 32
36 37 36 35 31 32 34 47 49 52 56 57 55 58 60 66 63 66 64 70 69 74 62 55 68 58 56 46 49 50 37 35
38 41 39 42 35 32 34 40 53 60 54 59 56 56 60 57 60 66 71 76 77 69 74 68 87 77 69 64 64 51 42 35
42 43 43 43 42 35 31 37 46 58 58 57 59 59 60 62 67 69 76 76 72 72 89 95 73 65 65 72 64 65 52 37
39 38 36 43 50 51 41 34 38 49 60 64 66 63 67 73 69 66 65 68 72 70 75 77 89 64 65 65 68 65 52 50
33 41 45 37 33 39 35 40 41 43 54 72 73 76 73 68 64 66 72 71 72 69 72 72 67 71 69 64 59 63 55 48
41 45 40 39 37 40 44 46 50 50 47 61 77 79 82 67 65 68 71 76 63 67 80 77 74 74 72 75 72 70 54 55
31 31 35 36 36 37 40 46 55 55 52 53 67 83 81 82 73 73 61 60 62 72 73 86 75 73 71 71 62 59 64 66
35 39 40 42 39 41 42 44 44 48 59 61 61 74 82 83 79 71 73 64 63 68 78 84 72 71 63 56 57 54 54 55
41 40 36 42 42 45 47 44 46 47 50 58 62 68 79 79 80 82 74 68 68 69 69 68 68 59 56 59 57 58 52 49
36 44 49 43 43 46 42 44 47 47 49 54 59 66 74 80 80 83 78 71 72 89 77 60 63 60 59 57 54 56 53 51
38 41 52 50 49 50 45 45 47 49 48 48 57 62 69 74 80 77 87 79 78 65 65 55 53 52 53 55 53 47 48 48
54 45 44 52 47 54 47 46 44 45 47 40 45 57 63 67 70 84 81 82 79 72 43 56 55 52 50 50 50 44 44 45
Wind_Direction_850mb
263 258 236 216 214 209 207 204 201 198 194 205 204 202 206 211 210 216 213 208 206 195 217 214 212 210 213 215 221 226 237 238
260 255 250 235 217 216 211 210 202 202 201 206 206 200 204 205 207 209 209 200 205 201 203 207 212 214 209 229 226 233 233 241
251 248 249 249 233 216 219 214 211 208 194 209 206 202 210 203 207 214 200 202 207 201 201 203 211 203 217 204 211 238 240 248
246 243 244 240 236 229 220 218 221 214 204 202 209 202 208 206 203 211 208 205 213 206 196 198 205 200 211 212 214 223 240 235
248 242 245 242 241 236 224 219 218 228 222 206 212 209 203 208 200 219 218 216 215 211 206 207 204 203 204 213 213 226 223 231
254 244 249 252 247 242 227 225 221 226 227 219 212 210 211 215 216 214 223 220 217 220 215 209 207 206 218 211 222 219 240 233
252 252 254 256 257 235 225 220 217 227 229 223 215 217 219 207 215 211 228 226 219 223 213 215 212 204 214 207 218 223 227 231
251 253 248 249 253 241 221 224 223 214 225 230 222 218 215 214 209 214 218 229 224 222 218 213 224 222 213 218 218 224 222 233
245 242 252 256 256 246 234 223 226 221 219 218 217 220 224 220 214 219 218 232 230 219 214 227 226 216 216 215 222 219 225 230
248 247 251 258 264 264 249 247 225 228 220 224 222 219 223 222 218 217 216 219 220 212 222 233 238 222 224 209 224 229 232 226
265 263 263 264 263 270 273 266 245 230 228 226 227 220 223 221 218 215 223 224 226 219 223 217 226 230 228 232 235 237 234 233
285 277 259 260 265 270 269 267 264 246 232 222 222 219 215 214 214 214 216 226 224 219 221 225 218 225 222 231 227 229 226 212
304 298 286 303 267 265 274 279 276 266 241 231 222 223 226 220 217 217 211 220 225 221 223 223 228 222 230 216 230 224 231 240
310 299 302 299 293 287 285 284 279 275 261 242 232 226 225 219 221 223 220 223 229 250 225 229 226 226 220 230 223 238 242 239
306 300 301 305 300 296 295 291 285 276 271 260 242 237 232 223 218 216 215 219 217 227 225 227 226 230 232 235 233 235 237 220
315 310 317 308 300 296 290 294 293 284 269 261 252 239 237 231 226 221 218 217 217 221 221 215 219 225 224 223 229 228 227 231
309 299 296 297 307 302 294 298 304 298 280 259 254 247 236 231 229 227 222 223 215 211 221 211 210 208 213 218 221 225 227 231
294 296 302 288 292 293 300 304 305 303 292 264 249 247 238 235 227 227 219 218 213 208 215 211 205 206 212 217 218 226 228 229
294 296 289 299 294 292 298 304 299 305 301 279 249 243 240 236 230 224 217 211 215 204 207 185 198 203 211 217 216 219 223 223
314 303 294 290 290 297 300 297 301 298 303 292 259 249 240 238 232 225 221 213 212 220 170 188 198 202 207 216 215 215 220 219